KX4O-13 Weather Reports


time (UTC)temp
C
wind
direction
speed
KPH
gust
KPH
rain 1hr
cm
rain 24hr
cm
rain mn
cm
humidity
%
barometer
mb
20260510045545 9 281 0.0 1.6 0.00 0.00 0.00 92 1010.2
20260510045047 10 295 0.0 0.0 0.00 0.00 0.00 92 1010.4
20260510044545 10 296 0.0 0.0 0.00 0.00 0.00 91 1010.2
20260510044045 10 296 0.0 0.0 0.00 0.00 0.00 92 1010.2
20260510043545 10 295 0.0 0.0 0.00 0.00 0.00 92 1010.2
20260510043045 10 296 0.0 0.0 0.00 0.00 0.00 92 1010.2
20260510042545 10 295 0.0 3.2 0.00 0.00 0.00 91 1010.2
20260510042045 10 293 0.0 0.0 0.00 0.00 0.00 91 1010.3
20260510041545 10 274 0.0 1.6 0.00 0.00 0.00 91 1010.2
20260510041047 10 281 0.0 3.2 0.00 0.00 0.00 90 1010.2
20260510040545 10 281 0.0 3.2 0.00 0.00 0.00 90 1010.2
20260510040045 11 355 0.0 1.6 0.00 0.00 0.00 90 1010.1
20260510035545 11 355 0.0 0.0 0.00 0.00 0.00 90 1010.1
20260510035045 11 355 0.0 1.6 0.00 0.00 0.00 89 1010.0
20260510034545 11 355 0.0 1.6 0.00 0.00 0.00 89 1010.0
20260510034045 11 355 0.0 1.6 0.00 0.00 0.00 89 1010.0
20260510033545 11 355 0.0 0.0 0.00 0.00 0.00 88 1010.0
20260510033047 11 355 1.6 3.2 0.00 0.00 0.00 88 1009.9
20260510032545 12 355 1.6 3.2 0.00 0.00 0.00 88 1009.9
20260510032045 12 355 0.0 1.6 0.00 0.00 0.00 89 1009.8
20260510031545 12 355 0.0 3.2 0.00 0.00 0.00 88 1009.8
20260510031047 12 355 1.6 3.2 0.00 0.00 0.00 88 1009.8
20260510030545 12 355 1.6 1.6 0.00 0.00 0.00 87 1009.7
20260510030045 12 355 0.0 3.2 0.00 0.00 0.00 87 1009.8
20260510025545 12 103 0.0 0.0 0.00 0.00 0.00 86 1009.8
20260510025045 12 103 0.0 3.2 0.00 0.00 0.00 86 1009.7
20260510024545 12 103 0.0 0.0 0.00 0.00 0.00 85 1009.8
20260510024045 12 103 0.0 3.2 0.00 0.00 0.00 85 1009.8
20260510023545 12 103 0.0 3.2 0.00 0.00 0.00 85 1009.8
20260510023047 13 103 0.0 1.6 0.00 0.00 0.00 85 1009.6
20260510022545 13 103 0.0 1.6 0.00 0.00 0.00 85 1009.7
20260510022045 12 103 0.0 1.6 0.00 0.00 0.00 85 1009.6
20260510021545 12 103 0.0 1.6 0.00 0.00 0.00 86 1009.6
20260510021045 12 103 0.0 3.2 0.00 0.00 0.00 84 1009.6
20260510020545 13 103 0.0 0.0 0.00 0.00 0.00 84 1009.5
20260510020045 13 103 0.0 0.0 0.00 0.00 0.00 83 1009.4
20260510015545 13 103 0.0 0.0 0.00 0.00 0.00 82 1009.3
20260510015048 13 103 1.6 3.2 0.00 0.00 0.00 81 1009.3
20260510014546 14 103 1.6 1.6 0.00 0.00 0.00 80 1009.1
20260510014046 14 103 0.0 1.6 0.00 0.00 0.00 80 1009.1
20260510013546 14 103 0.0 0.0 0.00 0.00 0.00 80 1009.1
20260510013045 14 103 0.0 0.0 0.00 0.00 0.00 79 1009.0
20260510012546 15 103 0.0 0.0 0.00 0.00 0.00 80 1008.9
20260510012046 14 103 0.0 0.0 0.00 0.00 0.00 79 1008.9
20260510011546 14 103 0.0 3.2 0.00 0.00 0.00 80 1008.8
20260510011048 14 103 0.0 0.0 0.00 0.00 0.00 80 1008.7
20260510010546 14 103 0.0 0.0 0.00 0.00 0.00 79 1008.6
20260510010046 15 103 0.0 0.0 0.00 0.00 0.00 77 1008.4
20260510005546 15 103 0.0 0.0 0.00 0.00 0.00 76 1008.4
20260510005046 15 103 0.0 0.0 0.00 0.00 0.00 75 1008.4
20260510004546 16 103 0.0 0.0 0.00 0.00 0.00 74 1008.3
20260510004046 16 103 0.0 1.6 0.00 0.00 0.00 75 1008.2
20260510003546 16 103 0.0 3.2 0.00 0.00 0.00 75 1008.2
20260510003048 16 103 0.0 0.0 0.00 0.00 0.00 77 1008.2
20260510002546 16 103 0.0 3.2 0.00 0.00 0.00 76 1008.1
20260510002046 16 103 0.0 3.2 0.00 0.00 0.00 74 1008.1
20260510001546 17 350 0.0 3.2 0.00 0.00 0.00 72 1008.1
20260510001046 17 350 0.0 1.6 0.00 0.00 0.00 71 1008.0
20260510000546 17 350 0.0 3.2 0.00 0.00 0.00 70 1008.0
20260510000046 17 350 1.6 1.6 0.00 0.00 0.00 69 1008.0
20260509235546 18 346 0.0 1.6 0.00 0.00 0.00 68 1008.1
20260509235048 18 90 0.0 0.0 0.00 0.00 0.00 68 1007.9
20260509234546 18 184 0.0 0.0 0.00 0.00 0.00 67 1007.8
20260509234046 19 184 0.0 0.0 0.00 0.00 0.00 62 1007.8
20260509233546 20 184 0.0 0.0 0.00 0.00 0.00 62 1007.9
20260509233046 20 184 0.0 3.2 0.00 0.00 0.00 54 1007.8
20260509232546 21 184 0.0 1.6 0.00 0.00 0.00 54 1007.7
20260509232046 21 184 1.6 3.2 0.00 0.00 0.00 50 1007.7
20260509231546 21 182 1.6 3.2 0.00 0.00 0.00 52 1007.6
20260509231048 21 185 1.6 3.2 0.00 0.00 0.00 53 1007.7
20260509230546 22 191 1.6 3.2 0.00 0.00 0.00 50 1007.7
20260509230046 22 177 1.6 4.8 0.00 0.00 0.00 50 1007.8
20260509225546 21 208 1.6 3.2 0.00 0.00 0.00 52 1007.6
20260509225046 21 152 1.6 4.8 0.00 0.00 0.00 54 1007.6
20260509224546 22 171 1.6 3.2 0.00 0.00 0.00 52 1007.7
20260509224046 22 190 1.6 6.4 0.00 0.00 0.00 49 1007.7
20260509223546 22 186 0.0 1.6 0.00 0.00 0.00 54 1007.6
20260509223048 22 155 0.0 3.2 0.00 0.00 0.00 54 1007.7
20260509222546 22 258 0.0 3.2 0.00 0.00 0.00 51 1007.7
20260509222046 22 258 1.6 3.2 0.00 0.00 0.00 50 1007.8
20260509221546 23 250 1.6 3.2 0.00 0.00 0.00 49 1007.7
20260509221048 23 269 0.0 3.2 0.00 0.00 0.00 50 1007.7
20260509220546 22 234 1.6 4.8 0.00 0.00 0.00 50 1007.7
20260509220046 22 250 3.2 4.8 0.00 0.00 0.00 52 1007.7
20260509215546 22 180 3.2 8.0 0.00 0.00 0.00 50 1007.7
20260509215046 22 229 1.6 4.8 0.00 0.00 0.00 49 1007.7
20260509214546 22 236 0.0 4.8 0.00 0.00 0.00 50 1007.6
20260509214046 22 192 0.0 4.8 0.00 0.00 0.00 55 1007.6
20260509213546 22 232 1.6 1.6 0.00 0.00 0.00 51 1007.6
20260509213048 22 185 1.6 4.8 0.00 0.00 0.00 51 1007.5
20260509212546 22 271 1.6 9.7 0.00 0.00 0.00 55 1007.5
20260509212046 22 240 1.6 3.2 0.00 0.00 0.00 53 1007.5
20260509211546 22 248 3.2 8.0 0.00 0.00 0.00 51 1007.4
20260509211046 22 267 1.6 6.4 0.00 0.00 0.00 49 1007.4
20260509210546 22 251 1.6 3.2 0.00 0.00 0.00 52 1007.5
20260509210046 22 211 1.6 3.2 0.00 0.00 0.00 54 1007.4
20260509205546 22 191 1.6 4.8 0.00 0.00 0.00 50 1007.5
20260509205048 22 198 1.6 4.8 0.00 0.00 0.00 48 1007.5
20260509204546 22 191 3.2 8.0 0.00 0.00 0.00 49 1007.5
20260509204046 22 196 1.6 9.7 0.00 0.00 0.00 48 1007.4
20260509203546 22 207 3.2 3.2 0.00 0.00 0.00 50 1007.4
20260509203046 22 246 4.8 11.3 0.00 0.00 0.00 47 1007.4
20260509202546 22 236 4.8 16.1 0.00 0.00 0.00 48 1007.4
20260509202046 22 259 4.8 12.9 0.00 0.00 0.00 44 1007.5
20260509201546 23 190 3.2 29.0 0.00 0.00 0.00 45 1007.5
20260509201048 23 227 3.2 6.4 0.00 0.00 0.00 50 1007.4
20260509200546 23 194 4.8 12.9 0.00 0.00 0.00 47 1007.4
20260509200046 23 232 6.4 12.9 0.00 0.00 0.00 48 1007.6
20260509195546 23 238 8.0 17.7 0.00 0.00 0.00 47 1007.6
20260509195046 23 229 6.4 17.7 0.00 0.00 0.00 48 1007.7
20260509194546 23 164 6.4 14.5 0.00 0.00 0.00 45 1007.8
20260509194046 23 248 6.4 16.1 0.00 0.00 0.00 48 1007.9
20260509193546 23 200 4.8 17.7 0.00 0.00 0.00 48 1008.0
20260509193048 22 237 6.4 11.3 0.00 0.00 0.00 51 1008.1
20260509192546 22 202 4.8 14.5 0.00 0.00 0.00 48 1008.2
20260509192046 23 209 3.2 14.5 0.00 0.00 0.00 51 1008.2
20260509191546 23 202 4.8 12.9 0.00 0.00 0.00 52 1008.2
20260509191046 22 158 4.8 14.5 0.00 0.00 0.00 53 1008.4
20260509190546 22 248 4.8 14.5 0.00 0.00 0.00 52 1008.5
20260509190046 22 269 6.4 14.5 0.00 0.00 0.00 53 1008.6
20260509185546 22 195 8.0 14.5 0.00 0.00 0.00 54 1008.7
20260509185048 22 250 6.4 14.5 0.00 0.00 0.00 53 1008.7
20260509184546 22 168 4.8 11.3 0.00 0.00 0.00 59 1008.7
20260509184046 21 225 4.8 14.5 0.00 0.00 0.00 58 1008.9
20260509183546 21 219 6.4 11.3 0.00 0.00 0.00 56 1008.9
20260509183046 21 223 6.4 17.7 0.00 0.00 0.00 58 1008.8
20260509182546 20 197 6.4 20.9 0.00 0.00 0.00 57 1008.9
20260509182046 21 234 8.0 17.7 0.00 0.00 0.00 58 1008.9
20260509181546 20 190 4.8 17.7 0.00 0.00 0.00 56 1009.0
20260509181048 20 184 3.2 11.3 0.00 0.00 0.00 59 1009.1
20260509180546 20 265 3.2 6.4 0.00 0.00 0.00 59 1009.2
20260509180046 20 261 4.8 8.0 0.00 0.00 0.00 58 1009.3
20260509175546 20 254 3.2 14.5 0.00 0.00 0.00 58 1009.4
20260509175048 20 249 1.6 6.4 0.00 0.00 0.00 58 1009.4
20260509174546 20 242 1.6 3.2 0.00 0.00 0.00 63 1009.4
20260509174046 20 159 1.6 3.2 0.00 0.00 0.00 59 1009.5
20260509173546 20 271 1.6 4.8 0.00 0.00 0.00 59 1009.7
20260509173048 20 328 3.2 9.7 0.00 0.00 0.00 62 1009.7
20260509172546 20 306 3.2 8.0 0.00 0.00 0.00 60 1009.8
20260509172046 19 279 3.2 11.3 0.00 0.00 0.00 60 1009.9
20260509171546 19 179 4.8 11.3 0.00 0.00 0.00 60 1009.9
20260509171046 19 227 4.8 12.9 0.00 0.00 0.00 59 1009.9
20260509170546 20 252 4.8 12.9 0.00 0.00 0.00 57 1009.8
20260509170046 20 255 6.4 8.0 0.00 0.00 0.00 58 1009.7
20260509165546 20 190 9.7 17.7 0.00 0.00 0.00 57 1009.7
20260509165048 20 165 8.0 19.3 0.00 0.00 0.00 60 1009.7
20260509164546 20 207 6.4 16.1 0.00 0.00 0.00 59 1009.7
20260509164046 20 198 8.0 16.1 0.00 0.00 0.00 59 1009.8
20260509163546 20 216 8.0 16.1 0.00 0.00 0.00 59 1009.8
20260509163048 19 176 6.4 14.5 0.00 0.00 0.00 60 1009.9
20260509162546 19 244 4.8 20.9 0.00 0.00 0.00 59 1010.0
20260509162046 19 151 3.2 12.9 0.00 0.00 0.00 62 1010.0
20260509161546 18 285 3.2 6.4 0.00 0.00 0.00 61 1010.0
20260509161046 18 175 3.2 11.3 0.00 0.00 0.00 61 1010.0
20260509160546 18 288 4.8 11.3 0.00 0.00 0.00 62 1010.2
20260509160046 18 244 3.2 14.5 0.00 0.00 0.00 62 1010.2
20260509155546 18 234 4.8 6.4 0.00 0.00 0.00 60 1010.1
20260509155048 18 178 8.0 16.1 0.00 0.00 0.00 59 1010.2
20260509154546 19 227 8.0 19.3 0.00 0.00 0.00 58 1010.0
20260509154046 18 194 4.8 20.9 0.00 0.00 0.00 58 1010.0
20260509153546 18 239 8.0 12.9 0.00 0.00 0.00 60 1010.2
20260509153046 18 188 9.7 24.1 0.00 0.00 0.00 60 1010.3
20260509152546 18 207 9.7 16.1 0.00 0.00 0.00 59 1010.3
20260509152046 18 171 11.3 20.9 0.00 0.00 0.00 57 1010.4
20260509151546 19 197 11.3 22.5 0.00 0.00 0.00 57 1010.3
20260509151048 18 171 6.4 17.7 0.00 0.00 0.00 58 1010.2
20260509150546 18 175 6.4 11.3 0.00 0.00 0.00 61 1010.3
20260509150046 18 203 6.4 16.1 0.00 0.00 0.00 57 1010.3
20260509145546 17 161 4.8 9.7 0.00 0.00 0.00 61 1010.2
20260509145046 17 245 6.4 16.1 0.00 0.00 0.00 59 1010.2
20260509144546 17 214 8.0 19.3 0.00 0.00 0.00 61 1010.5
20260509144046 17 185 8.0 20.9 0.00 0.00 0.00 59 1010.4
20260509143546 17 176 8.0 12.9 0.00 0.00 0.00 60 1010.4
20260509143048 17 169 9.7 19.3 0.00 0.00 0.00 62 1010.6
20260509142546 17 162 8.0 17.7 0.00 0.00 0.00 61 1010.6
20260509142046 16 165 4.8 14.5 0.00 0.00 0.00 65 1010.8
20260509141546 16 241 6.4 16.1 0.00 0.00 0.00 64 1010.9
20260509141046 16 169 6.4 19.3 0.00 0.00 0.00 62 1010.9
20260509140546 15 207 6.4 14.5 0.00 0.00 0.00 66 1011.0
20260509140046 15 215 6.4 11.3 0.00 0.00 0.00 64 1011.0
20260509135546 15 192 8.0 12.9 0.00 0.00 0.00 63 1010.9
20260509135048 15 192 8.0 19.3 0.00 0.00 0.00 63 1010.9
20260509134546 15 175 6.4 14.5 0.00 0.00 0.00 64 1011.0
20260509134046 15 181 6.4 12.9 0.00 0.00 0.00 65 1010.9
20260509133546 15 196 8.0 17.7 0.00 0.00 0.00 63 1010.9
20260509133046 14 174 6.4 14.5 0.00 0.00 0.00 63 1010.9
20260509132546 14 192 6.4 12.9 0.00 0.00 0.00 66 1010.9
20260509132046 14 133 9.7 16.1 0.00 0.00 0.00 64 1010.9
20260509131546 14 182 9.7 20.9 0.00 0.00 0.00 64 1010.9
20260509131048 13 169 6.4 16.1 0.00 0.00 0.00 66 1010.9
20260509130546 13 206 8.0 12.9 0.00 0.00 0.00 66 1011.0
20260509130046 13 195 8.0 12.9 0.00 0.00 0.00 67 1011.0
20260509125546 13 202 8.0 14.5 0.00 0.00 0.00 67 1011.1
20260509125046 13 194 6.4 11.3 0.00 0.00 0.00 67 1011.1
20260509124546 13 168 6.4 9.7 0.00 0.00 0.00 66 1011.1
20260509124046 12 182 4.8 9.7 0.00 0.00 0.00 67 1011.2
20260509123546 12 157 6.4 12.9 0.00 0.00 0.00 66 1011.2
20260509123048 12 192 6.4 11.3 0.00 0.00 0.00 66 1011.1
20260509122546 12 175 6.4 16.1 0.00 0.00 0.00 66 1011.1
20260509122046 12 196 6.4 11.3 0.00 0.00 0.00 66 1011.1
20260509121546 12 188 6.4 11.3 0.00 0.00 0.00 65 1011.2
20260509121049 12 178 4.8 9.7 0.00 0.00 0.00 66 1011.2
20260509120546 12 202 4.8 12.9 0.00 0.00 0.00 67 1011.2
20260509120046 12 180 4.8 11.3 0.00 0.00 0.00 66 1011.2
20260509115546 12 163 3.2 8.0 0.00 0.00 0.00 66 1011.1
20260509115048 12 183 4.8 9.7 0.00 0.00 0.00 67 1011.1
20260509114546 12 183 4.8 9.7 0.00 0.00 0.00 67 1011.0
20260509114046 12 166 3.2 8.0 0.00 0.00 0.00 67 1011.0
20260509113546 12 181 3.2 9.7 0.00 0.00 0.00 67 1011.0
20260509113048 12 183 3.2 6.4 0.00 0.00 0.00 69 1010.9
20260509112547 11 191 3.2 8.0 0.00 0.00 0.00 68 1010.9
20260509112046 11 190 4.8 8.0 0.00 0.00 0.00 69 1010.8
20260509111546 11 192 4.8 9.7 0.00 0.00 0.00 68 1010.9
20260509111047 11 167 4.8 9.7 0.00 0.00 0.00 69 1010.8
20260509110547 11 182 4.8 11.3 0.00 0.00 0.00 68 1010.9
20260509110046 11 194 4.8 8.0 0.00 0.00 0.00 70 1010.9
20260509105547 11 170 3.2 9.7 0.00 0.00 0.00 69 1010.8
20260509105049 11 157 1.6 4.8 0.00 0.00 0.00 70 1010.8
20260509104547 11 147 1.6 3.2 0.00 0.00 0.00 71 1010.8
20260509104047 11 144 1.6 6.4 0.00 0.00 0.00 72 1010.8
20260509103547 11 138 1.6 3.2 0.00 0.00 0.00 74 1010.7
20260509103047 11 134 0.0 3.2 0.00 0.00 0.00 71 1010.7
20260509102547 11 167 0.0 4.8 0.00 0.00 0.00 71 1010.7
20260509102047 11 167 0.0 4.8 0.00 0.00 0.00 69 1010.8
20260509101547 11 167 0.0 4.8 0.00 0.00 0.00 69 1010.8
20260509101049 11 167 0.0 3.2 0.00 0.00 0.00 68 1010.6
20260509100547 11 237 0.0 3.2 0.00 0.00 0.00 67 1010.6
20260509100047 11 231 0.0 3.2 0.00 0.00 0.00 66 1010.7
20260509095547 11 240 0.0 3.2 0.00 0.00 0.00 66 1010.6
20260509095047 11 243 1.6 4.8 0.00 0.00 0.00 66 1010.8
20260509094547 11 223 1.6 3.2 0.00 0.00 0.00 64 1010.8
20260509094047 11 185 1.6 4.8 0.00 0.00 0.00 65 1010.8
20260509093547 11 188 3.2 3.2 0.00 0.00 0.00 64 1010.8
20260509093049 11 205 3.2 6.4 0.00 0.00 0.00 64 1010.7
20260509092547 11 179 3.2 8.0 0.00 0.00 0.00 64 1010.7
20260509092047 12 182 3.2 6.4 0.00 0.00 0.00 64 1010.7
20260509091547 12 183 3.2 9.7 0.00 0.00 0.00 63 1010.8
20260509091047 12 184 4.8 9.7 0.00 0.00 0.00 63 1010.9
20260509090547 12 190 4.8 9.7 0.00 0.00 0.00 63 1011.0
20260509090047 12 183 4.8 9.7 0.00 0.00 0.00 64 1011.1
20260509085547 12 170 3.2 6.4 0.00 0.00 0.00 64 1011.1
20260509085049 12 176 3.2 9.7 0.00 0.00 0.00 63 1011.1
20260509084547 12 155 3.2 8.0 0.00 0.00 0.00 64 1011.2
20260509084047 12 169 3.2 6.4 0.00 0.00 0.00 64 1011.2
20260509083547 12 181 3.2 8.0 0.00 0.00 0.00 63 1011.2
20260509083047 12 194 4.8 8.0 0.00 0.00 0.00 63 1011.2
20260509082547 12 182 4.8 8.0 0.00 0.00 0.00 63 1011.3
20260509082047 12 190 4.8 8.0 0.00 0.00 0.00 64 1011.3
20260509081547 12 167 4.8 9.7 0.00 0.00 0.00 64 1011.4
20260509081049 11 174 3.2 6.4 0.00 0.00 0.00 64 1011.4
20260509080547 11 182 3.2 8.0 0.00 0.00 0.00 64 1011.4
20260509080047 11 157 3.2 8.0 0.00 0.00 0.00 64 1011.4
20260509075547 11 161 3.2 11.3 0.00 0.00 0.00 64 1011.4
20260509075047 11 170 4.8 8.0 0.00 0.00 0.00 64 1011.6
20260509074547 11 171 6.4 12.9 0.00 0.00 0.00 63 1011.5
20260509074047 11 162 4.8 11.3 0.00 0.00 0.00 64 1011.5
20260509073547 11 179 3.2 6.4 0.00 0.00 0.00 64 1011.6
20260509073049 11 153 3.2 6.4 0.00 0.00 0.00 63 1011.6
20260509072547 11 150 3.2 8.0 0.00 0.00 0.00 63 1011.6
20260509072047 12 158 3.2 8.0 0.00 0.00 0.00 63 1011.4
20260509071547 12 180 3.2 8.0 0.00 0.00 0.00 62 1011.4
20260509071047 12 169 3.2 6.4 0.00 0.00 0.00 61 1011.4
20260509070547 12 166 3.2 8.0 0.00 0.00 0.00 61 1011.4
20260509070047 12 175 3.2 6.4 0.00 0.00 0.00 61 1011.5
20260509065547 12 190 3.2 6.4 0.00 0.00 0.00 61 1011.4
20260509065049 12 184 3.2 8.0 0.00 0.00 0.00 60 1011.5
20260509064547 12 196 4.8 8.0 0.00 0.00 0.00 61 1011.4
20260509064047 12 181 4.8 8.0 0.00 0.00 0.00 62 1011.5
20260509063547 12 193 4.8 9.7 0.00 0.00 0.00 61 1011.5
20260509063047 12 146 4.8 11.3 0.00 0.00 0.00 62 1011.5
20260509062547 12 172 3.2 9.7 0.00 0.00 0.00 61 1011.6
20260509062047 11 194 1.6 9.7 0.00 0.00 0.00 63 1011.7
20260509061547 11 153 1.6 4.8 0.00 0.00 0.00 64 1011.8
20260509061049 11 155 3.2 4.8 0.00 0.00 0.00 63 1011.8
20260509060547 11 145 3.2 8.0 0.00 0.00 0.00 61 1011.8
20260509060047 12 164 3.2 6.4 0.00 0.00 0.00 60 1011.9
20260509055547 12 186 3.2 6.4 0.00 0.00 0.00 60 1011.9
20260509055049 12 175 3.2 9.7 0.00 0.00 0.00 61 1011.9
20260509054547 12 168 3.2 9.7 0.00 0.00 0.00 60 1011.9
20260509054047 12 180 3.2 6.4 0.00 0.00 0.00 61 1012.0
20260509053547 12 188 3.2 8.0 0.00 0.00 0.00 61 1011.9
20260509053047 11 194 3.2 6.4 0.00 0.00 0.00 61 1012.0
20260509052547 11 191 3.2 6.4 0.00 0.00 0.00 61 1012.0
20260509052047 12 171 1.6 4.8 0.00 0.00 0.00 61 1012.1
20260509051547 11 186 1.6 4.8 0.00 0.00 0.00 62 1012.0
20260509051049 11 195 1.6 3.2 0.00 0.00 0.00 64 1012.0
20260509050547 11 248 1.6 3.2 0.00 0.00 0.00 64 1012.0
20260509050047 11 240 0.0 3.2 0.00 0.00 0.00 63 1012.0